This demonstration page uses our WeatherBlox Daily Observations layout. Learn more.

Hourly Observations for August 10, 2018

Temp ( °F °C ) Dew Point ( °F °C ) Humidity (%) Winds ( mph kmh ) Pressure ( in mb ) Visibility ( mi km ) Precip ( " mm )
12:15 am 00:15 Clear 73 23 70 21 89 89 Calm 29.94 1014 10 16.09344 0 0
12:35 am 00:35 Clear 72 22 72 22 100 100 NNW 3 6 29.94 1014 10 16.09344 0 0
12:55 am 00:55 Clear 72 22 70 21 94 94 Calm 29.94 1014 10 16.09344 0 0
1:15 am 01:15 Clear 73 23 70 21 89 89 Calm 29.94 1014 10 16.09344 0 0
1:35 am 01:35 Clear 72 22 70 21 94 94 Calm 29.94 1014 10 16.09344 0 0
1:55 am 01:55 Clear 70 21 70 21 100 100 WNW 3 6 29.94 1014 10 16.09344 0 0
2:15 am 02:15 Clear 70 21 70 21 100 100 W 3 6 29.94 1014 10 16.09344 0 0
2:35 am 02:35 Clear 72 22 68 20 88 88 WNW 5 7 29.94 1014 10 16.09344 0 0
2:55 am 02:55 Clear 72 22 68 20 88 88 WNW 5 7 29.94 1014 10 16.09344 0 0
3:15 am 03:15 Clear 72 22 68 20 88 88 Calm 29.94 1014 10 16.09344 0 0
3:35 am 03:35 Clear 70 21 68 20 94 94 W 3 6 29.91 1013 10 16.09344 0 0
3:55 am 03:55 Clear 72 22 68 20 88 88 SW 3 6 29.91 1013 10 16.09344 0 0
4:15 am 04:15 Clear 70 21 68 20 94 94 SW 3 6 29.94 1014 10 16.09344 0 0
4:35 am 04:35 Clear 70 21 68 20 94 94 WNW 6 9 29.94 1014 10 16.09344 0 0
4:55 am 04:55 Clear 70 21 68 20 94 94 W 6 9 29.94 1014 10 16.09344 0 0
5:15 am 05:15 Clear 72 22 68 20 88 88 Calm 29.94 1014 10 16.09344 0 0
5:35 am 05:35 Clear 72 22 68 20 88 88 NW 3 6 29.94 1014 10 16.09344 0 0
5:55 am 05:55 Clear 72 22 68 20 88 88 Calm 29.94 1014 10 16.09344 0 0
6:15 am 06:15 Clear 70 21 68 20 94 94 NW 5 7 29.94 1014 10 16.09344 0 0
6:35 am 06:35 Sunny 70 21 68 20 94 94 undefined N/A 29.94 1014 10 16.09344 0 0
6:55 am 06:55 Sunny 70 21 68 20 94 94 Calm 29.94 1014 10 16.09344 0 0
7:15 am 07:15 Sunny 70 21 68 20 94 94 Calm 29.94 1014 10 16.09344 0 0
7:35 am 07:35 Sunny 72 22 68 20 88 88 Calm 29.94 1014 10 16.09344 0 0
7:55 am 07:55 Sunny 75 24 68 20 78 78 Calm 29.94 1014 10 16.09344 0 0
8:15 am 08:15 Sunny 77 25 70 21 79 79 NNW 5 7 29.97 1015 10 16.09344 0 0
8:35 am 08:35 Sunny 77 25 70 21 79 79 NNW 6 9 29.97 1015 10 16.09344 0 0
8:55 am 08:55 Sunny 79 26 70 21 74 74 NW 6 9 29.97 1015 10 16.09344 0 0
9:15 am 09:15 Sunny 79 26 70 21 74 74 NNW 6 9 29.97 1015 10 16.09344 0 0
9:35 am 09:35 Sunny 81 27 70 21 70 70 NNW 9 15 29.97 1015 10 16.09344 0 0
9:55 am 09:55 Sunny 81 27 70 21 70 70 N 6 9 29.97 1015 10 16.09344 0 0
10:15 am 10:15 Sunny 82 28 70 21 66 66 N 8 13 29.97 1015 10 16.09344 0 0
10:35 am 10:35 Sunny 82 28 70 21 66 66 N 9 15 29.97 1015 10 16.09344 0 0
10:55 am 10:55 Sunny 84 29 70 21 62 62 NW 9 15 29.97 1015 10 16.09344 0 0
11:15 am 11:15 Sunny 84 29 70 21 62 62 NNW 6 9 29.97 1015 10 16.09344 0 0
11:35 am 11:35 Sunny 84 29 70 21 62 62 NW 5 7 29.97 1015 10 16.09344 0 0
11:55 am 11:55 Sunny 86 30 70 21 59 59 WNW 6 9 29.94 1014 10 16.09344 0 0
12:15 pm 12:15 Sunny 86 30 68 20 55 55 N 6 9 29.94 1014 10 16.09344 0 0
12:35 pm 12:35 Sunny 88 31 68 20 52 52 Calm 29.94 1014 10 16.09344 0 0
12:55 pm 12:55 Sunny 88 31 66 19 49 49 W 6 9 29.94 1014 10 16.09344 0 0
1:15 pm 13:15 Sunny 88 31 70 21 55 55 WNW 3 6 29.91 1013 10 16.09344 0 0
1:35 pm 13:35 Partly Cloudy 88 31 70 21 55 55 WNW 5 7 29.91 1013 10 16.09344 0 0
1:55 pm 13:55 Sunny 88 31 68 20 52 52 WNW 3 6 29.91 1013 10 16.09344 0 0
2:15 pm 14:15 Sunny 90 32 68 20 49 49 W 6 9 29.91 1013 10 16.09344 0 0
2:35 pm 14:35 Sunny 90 32 68 20 49 49 W 6 9 29.91 1013 10 16.09344 0 0
2:55 pm 14:55 Sunny 90 32 68 20 49 49 W 5 7 29.91 1013 10 16.09344 0 0
3:15 pm 15:15 Sunny 88 31 70 21 55 55 W 6 9 29.88 1012 10 16.09344 0 0
3:35 pm 15:35 Sunny 88 31 70 21 55 55 WSW 3 6 29.88 1012 10 16.09344 0 0
3:55 pm 15:55 Sunny 90 32 70 21 52 52 WSW 7 11 29.88 1012 10 16.09344 0 0
4:15 pm 16:15 Sunny 88 31 68 20 52 52 WSW 5 7 29.88 1012 10 16.09344 0 0
4:35 pm 16:35 Sunny 90 32 70 21 52 52 W 3 6 29.88 1012 10 16.09344 0 0
4:55 pm 16:55 Sunny 90 32 70 21 52 52 SSW 8 13 29.88 1012 10 16.09344 0 0
5:15 pm 17:15 Sunny 88 31 70 21 55 55 SSW 3 6 29.88 1012 10 16.09344 0 0
5:35 pm 17:35 Sunny 88 31 70 21 55 55 SW 5 7 29.88 1012 10 16.09344 0 0
5:55 pm 17:55 Sunny 90 32 70 21 52 52 WSW 3 6 29.85 1011 10 16.09344 0 0
6:15 pm 18:15 Sunny 88 31 70 21 55 55 Calm 29.85 1011 10 16.09344 0 0
6:35 pm 18:35 Sunny 88 31 70 21 55 55 Calm 29.85 1011 10 16.09344 0 0
6:55 pm 18:55 Sunny 86 30 70 21 59 59 Calm 29.85 1011 10 16.09344 0 0
7:15 pm 19:15 Sunny 86 30 70 21 59 59 Calm 29.85 1011 10 16.09344 0 0
7:35 pm 19:35 Sunny 86 30 70 21 59 59 Calm 29.85 1011 10 16.09344 0 0
7:55 pm 19:55 Sunny 82 28 70 21 66 66 Calm 29.91 1013 10 16.09344 0 0
8:15 pm 20:15 Clear 81 27 72 22 74 74 Calm 29.88 1012 10 16.09344 0 0
8:35 pm 20:35 Clear 81 27 73 23 79 79 Calm 29.91 1013 10 16.09344 0 0
8:55 pm 20:55 Clear 79 26 75 24 89 89 Calm 29.91 1013 10 16.09344 0 0
9:15 pm 21:15 Partly Cloudy 79 26 73 23 84 84 S 3 6 29.91 1013 10 16.09344 0 0
9:35 pm 21:35 Mostly Cloudy 77 25 73 23 89 89 SW 3 6 29.91 1013 10 16.09344 0 0
9:55 pm 21:55 Partly Cloudy 75 24 73 23 94 94 SW 3 6 29.94 1014 10 16.09344 0 0
10:15 pm 22:15 Clear 77 25 73 23 89 89 Calm 29.94 1014 10 16.09344 0 0
10:35 pm 22:35 Clear 77 25 73 23 89 89 Calm 29.94 1014 10 16.09344 0 0
10:55 pm 22:55 Clear 77 25 73 23 89 89 W 6 9 29.94 1014 10 16.09344 0 0
11:15 pm 23:15 Clear 77 25 72 22 83 83 WSW 3 6 29.94 1014 10 16.09344 0 0
11:35 pm 23:35 Clear 77 25 72 22 83 83 SW 5 7 29.91 1013 10 16.09344 0 0
11:55 pm 23:55 Clear 77 25 72 22 83 83 Calm 29.94 1014 10 16.09344 0 0

Powered by AerisWeather